Regional Weather Roundup
Issued by NWS Wakefield, VA

Home | Current Version | Previous Version | Graphics & Text | Print | Product List | Glossary On
Versions: 1 2 3 4 5 6 7 8 9 10 11 12 13 14 15 16 17 18 19 20 21 22 23 24 25 26 27 28 29 30 31 32 33 34 35 36 37 38 39 40 41 42 43 44 45 46 47 48 49 50
000
ASUS41 KAKQ 301010
RWRAKQ

REGIONAL WEATHER ROUNDUP
NATIONAL WEATHER SERVICE WAKEFIELD VA
600 AM EDT TUE SEP 30 2014

Note: "fair" indicates few or no clouds below 12,000 feet with no
significant weather and/or obstructions to visibility. * = Denotes
station may not report precipitation (e.g., rain,snow,etc.),
thunder or fog.

VAZ042-051-052>054-056-301100-
NORTHERN VIRGINIA

CITY           SKY/WX    TMP DP  RH WIND       PRES   REMARKS
WASH NATIONAL  CLOUDY    67  62  84 SW5       29.91S HAZE
DULLES         FOG       62  62 100 CALM      29.91S VSB 1/8
FORT BELVOIR   CLOUDY    64  63  96 CALM      29.92R FOG
QUANTICO       CLOUDY    64  62  93 W6        29.92R
FREDERICKSBRG* CLOUDY    65  65 100 CALM      29.91R
STAFFORD*      CLOUDY    64  64 100 CALM      29.95S
WARRENTON      CLOUDY    64  64 100 CALM      29.91R
CULPEPER*      CLOUDY    64  63  94 CALM      29.92R FOG
MANASSAS*      CLOUDY    64  63  94 CALM      29.91S
LEESBURG*      CLOUDY    63  63 100 CALM      29.92S
WINCHESTER     CLEAR     54  52  94 CALM      29.91S FOG
FRONT ROYAL*   SUNNY     55  55 100 S3        29.90S
LURAY*         MOSUNNY   54  54 100 CALM      29.93R
$$

VAZ048-049-060>072-079>083-301100-
CENTRAL AND SOUTH CENTRAL VIRGINIA...AND NORTH CENTRAL NORTH CAROLINA

CITY           SKY/WX    TMP DP  RH WIND       PRES   REMARKS
RICHMOND       CLOUDY    64  63  96 S5        29.91S FOG
CHESTERFIELD*  CLOUDY   N/A N/A N/A SW5       29.93R
PETERSBURG*    CLOUDY    64  63  97 CALM      29.93R FOG
HANOVER        CLOUDY    64  63  96 CALM      29.93R FOG
TAPPAHANNOCK*  FOG       62  60  93 CALM      29.93R VSB 3/4
CHARLOTTSVILLE FOG       62  62 100 CALM      29.91R VSB 1/4
ORANGE*        CLOUDY    63  61  94 CALM      29.93R FOG
LOUISA*        FOG       63  63 100 CALM      29.90S VSB 1
FARMVILLE*     CLOUDY    64  64 100 CALM      29.90R
CREWE*         CLOUDY    64  62  91 CALM      29.92R
FORT PICKETT*  CLOUDY    64  63  96 CALM      29.92S
LUNENBURG*     CLOUDY    64  64  98 CALM      29.92R
SOUTH HILL*    CLOUDY    64  64 100 CALM      29.97S FOG
LAWRENCEVILLE* CLOUDY    63  63 100 CALM      29.92R
ROANOKE RAPIDS FOG       55  55 100 CALM      29.92S VSB 1/4
RALEIGH        FOG       62  60  93 CALM      29.93S VSB 1/16
$$

VAZ088>098-301100-
SOUTHEAST VIRGINIA

CITY           SKY/WX    TMP DP  RH WIND       PRES   REMARKS
NORFOLK        CLOUDY    66  62  87 N3        29.91S
VIRGINIA BEACH MOCLDY    67  64  90 CALM      29.91R
NORFOLK NAVAL  PTCLDY    66  63  90 CALM      29.92S
WEST POINT*    CLOUDY    65  64  93 CALM      29.93S
NEWPORT NEWS   PTCLDY    64  60  87 CALM      29.91F FOG
LANGLEY AFB    MOCLDY    62  62 100 NW1       29.92F
FORT EUSTIS    PTCLDY    61 N/A N/A SE2       29.90S HAZE
WILLIAMSBURG*  CLOUDY    64  63  94 CALM      29.93S VSB 1/4
HR EXEC AP*    PTSUNNY   61  57  88 CALM      29.94S
FRANKLIN*      CLOUDY    61 N/A N/A CALM      29.91F VSB 1/2
WAKEFIELD      FOG       63  61  93 CALM      29.92S VSB 1/4
$$

VAZ020-022-025-037-045-301100-
WEST CENTRAL AND SOUTHWEST VIRGINIA

CITY           SKY/WX    TMP DP  RH WIND       PRES   REMARKS
STAUNTON*      CLOUDY    49  48  95 CALM      29.95S FOG
HOT SPRINGS VA CLEAR     55  50  83 W8        30.03S
LYNCHBURG      CLOUDY    62  62 100 W3        29.93S FOG
DANVILLE       CLOUDY    63  61  93 NW6       29.92S FOG
SOUTH BOSTON*  NOT AVBL
MARTINSVILLE   CLOUDY    63  63 100 CALM      29.95S FOG
ROANOKE        FOG       57  57 100 W3        29.96R VSB 1/4
BLACKSBURG     FOG       57  57 100 CALM      30.00R VSB 1/4
DUBLIN*        FOG       53  53 100 CALM      30.00R VSB 1/4
MARION*        FOG       54  53  96 W7        30.03R VSB 1/2
HILLSVILLE*    FOG       53  53 100 SW3       30.00S VSB 1/4
RICHLANDS*     SUNNY     61  58  90 CALM      30.00S
WISE*          FOG       57  57 100 SW3       30.02S VSB 1/4
ABINGDON*      FOG       55  55 100 CALM      30.00R VSB 1/2
$$

MDZ021>025-VAZ099-100-301100-
SOUTHERN MARYLAND AND THE DELMARVA PENINSULA

CITY           SKY/WX    TMP DP  RH WIND       PRES   REMARKS
PATUXENT RIVER CLOUDY    63  61  93 CALM      29.91S FOG
BAY BRIDGE APT   N/A     64  64 100 CALM      29.92R
LEONARDTOWN    CLOUDY    63  61  94 CALM      29.93R
DOVER          CLOUDY    62  62 100 W2        29.90R
GEORGETOWN     MOCLDY    62  59  90 CALM      29.92S
EASTON         PTCLDY    63  63 100 CALM      29.96R FOG
CAMBRIDGE      MOCLDY    61  59  94 CALM      29.92R
SALISBURY      CLOUDY    65  61  87 CALM      29.92R
OCEAN CITY     CLOUDY   N/A N/A N/A CALM      29.91S
WALLOPS ISLAND CLOUDY    64  62  93 CALM      29.92R
ACCOMACK*      CLOUDY    63  61  94 CALM      29.91S FOG
$$

NCZ012>017-030>032-301100-
EASTERN NORTH CAROLINA

CITY           SKY/WX    TMP DP  RH WIND       PRES   REMARKS
ELIZABETH CITY CLEAR     64  62  93 N7        29.91F
AHOSKIE*       FOG       57  57  98 CALM      29.92S VSB 1/2
EDENTON*       CLOUDY    62  61  96 N5        29.91S
CURRITUCK*     MOCLDY    64  62  94 CALM      29.92S
KILL DEVIL HLS CLEAR     68  61  78 NE3       29.89S
MANTEO         PTCLDY    67  60  80 NE6       29.90R
CAPE HATTERAS  CLOUDY    63  62  97 NE7       29.88S
TARBORO*       FOG       59  58  97 CALM      29.93R VSB 1/4
GOLDSBORO      CLOUDY    62  62  98 CALM      29.90R
WASHINGTON     CLOUDY    63  61  96 CALM      29.91S
GREENVILLE     FOG       59  59 100 CALM      29.93S VSB 1/4
NEW BERN       CLEAR     64  61  90 N6        29.91S
WILMINGTON     PTCLDY    64  63  96 N6        29.88S
$$

VAZ048-301100-
ELSEWHERE

CITY           SKY/WX    TMP DP  RH WIND       PRES   REMARKS
HARRISBURG PA  CLOUDY    61  60  97 E5        29.90S FOG
BALTIMORE      CLOUDY    65  63  93 SE3       29.91R FOG
ANNAPOLIS        N/A     65  63  93 MISG      29.91R
ANDREWS AFB    FOG       63  63 100 S5        29.91S VSB 3/4
WILMINGTON DE  LGT RAIN  64  63  96 CALM      29.93R FOG
PHILADELPHIA   CLOUDY    65  61  87 CALM      29.93R
WILDWOOD NJ*   CLOUDY    63  59  88 CALM      29.92S
ATLANTIC CITY  CLOUDY    60  58  92 CALM      29.93R
HENDERSON NC   CLOUDY    63  61  95 CALM      29.93R FOG
GREENSBORO     PTCLDY    61  61 100 CALM      29.92F FOG
ROCKY MOUNT    FOG       62  61  96 CALM      29.91F VSB 1/4
FAYETTEVILLE   FOG       59  58  96 CALM      29.91S VSB 1/4
CHARLOTTE      FOG       61  57  88 CALM      29.94S VSB 1/4
$$

VAZ100-301100-
MARINE

STATION/POSITION TIME  TEMP    WIND        PRES    WAVE   SWELL
                       AIR SEA DIR/SP/G            HT/PER HT/PER
                 (UTC) (F)     (DEG/KT/KT) (MB)    (FT/S) (FT/S)
44066 TX TWR #4  1000   68 70   30/  8/ 10 1013.1S   2/ 7   2/ 7
CAPE MAY NJ      1000   64 73  110/  3/  3 1012.5S
LEWES DE         1000   65 70  300/  1/  1 1012.6S
15NM E FENWICK I 1000   69 70              1012.5F   1/ 8
OCEAN-CITY-INLET 1000   67 71   70/  2/  2 1012.3S
WACHAPREAGUE VA  1000   64 72  300/  1/  2 1013.0S
THOMAS POINT MD  1000   65 71  220/  2/  3 1014.0R
GOOSES REEF MD   1000   65     260/  4/  6 1013.5S
COVE POINT MD    1000   64     270/  4/  6 1012.9S
SOLOMONS ISLAND  1000      72                N/A
BISHOPS HEAD MD  1000   67 70  200/  4/  4 1012.5R
PINEY POINT MD   1000          280/  6/  8   N/A
POTOMAC MD       1000   66     240/  6/  8 1012.1F
CAMBRIDGE MD     1000   63 71  190/  2/  2 1012.8R
LEWISETTA VA     1000   64 71  230/  5/  6 1012.4F
RAPPAHANNOCK LGT 1000          160/  3/  3 1013.4F
STINGRAY PT      1000   66     240/  4/  6   N/A
YORK RVR RNG VA  1000   67     300/  3/  3 1012.5S
YORKTOWN VA      1000   65 72  280/  4/  5 1012.6F
JAMESTOWN VA     1000   63     200/  2/  2   N/A
DOMINION TERM VA 1000   67     340/  4/  5 1013.0S
KIPTOPEKE VA     1000      76   60/  3/  4   N/A
CHES BAY BRIDGE  1000   67 72  320/  4/  5 1012.5S
CHESAPEAKE LGHT  0900   68      10/  8/  9 1013.4S
WILLOUBY STN VA  1000   67      10/  1/  2 1011.8S
S CRANEY ISL VA  1000          280/  3/  3 1012.6F
CAPE HENRY BUOY  1000      73                N/A     2/ 7
1ST LANDING BUOY 1000   69     340/  6/  8 1012.7R
CAPE CHARLES BUO 1000      72                N/A     2/ 8   2/ 8
OFFSHORE WE BUOY 1000      73                N/A     2/ 8   2/ 8
64NM E OF VA BCH 1000   70 71   20/ 10/ 12 1011.9R   2/ 8   2/ 8
DUCK PIER NC     1000   70 72   30/ 10/ 11 1011.7S
44100 DUCK FRF   1000      72                N/A     2/14
44056 DUCK FRF   1000                        N/A     2/ 8
OREGON INLET NC  1000   70 73   30/  8/ 11 1011.9F
HATTERAS NC      1000   70 74   30/ 10/ 15 1012.2R
DIAMOND SHLS NC  1000   71     350/ 19/ 21 1010.9F   4/ 4   2/ 8
CAPE LOOKOUT NC  0900   69      20/ 11/ 14 1011.5F
$$


USA.gov is the U.S. government's official web portal to all federal, state and local government web resources and services.